| time (UTC) | temp F | wind direction | speed MPH | gust MPH | rain 1hr in | rain 24hr in | rain mn in | humidity % | barometer mb |
| 20260903034546 | 78 | 0.0 | 3.0 | 0.00 | 0.00 | 0.00 | 93 | 1011.8 | |
| 20260903033042 | 78 | 0.0 | 3.0 | 0.00 | 0.00 | 0.00 | 93 | 1011.9 | |
| 20260903031544 | 79 | 0.0 | 3.0 | 0.00 | 0.00 | 0.00 | 93 | 1012.0 | |
| 20260903030036 | 79 | 0.0 | 3.0 | 0.00 | 0.00 | 0.00 | 92 | 1012.0 | |
| 20260903024538 | 79 | 0.0 | 3.0 | 0.00 | 0.00 | 0.00 | 91 | 1012.0 | |
| 20260903023037 | 80 | 0.0 | 4.0 | 0.00 | 0.00 | 0.00 | 91 | 1012.0 | |
| 20260903021534 | 80 | 0.0 | 4.0 | 0.00 | 0.00 | 0.00 | 90 | 1012.0 | |
| 20260903020033 | 80 | 0.0 | 4.0 | 0.00 | 0.00 | 0.00 | 90 | 1011.9 | |
| 20260903014547 | 81 | 0.0 | 5.0 | 0.00 | 0.00 | 0.00 | 89 | 1011.9 | |
| 20260903013036 | 81 | 0.0 | 3.0 | 0.00 | 0.00 | 0.00 | 88 | 1011.9 | |
| 20260903011536 | 82 | 0.0 | 3.0 | 0.00 | 0.00 | 0.00 | 87 | 1011.7 | |
| 20260903010032 | 83 | 0.0 | 3.0 | 0.00 | 0.00 | 0.00 | 86 | 1011.5 | |
| 20260903004541 | 84 | 0.0 | 3.0 | 0.00 | 0.00 | 0.00 | 84 | 1011.4 | |
| 20260903003039 | 85 | 0.0 | 2.0 | 0.00 | 0.00 | 0.00 | 83 | 1011.4 | |
| 20260903001530 | 86 | 0.0 | 2.0 | 0.00 | 0.00 | 0.00 | 80 | 1011.4 | |
| 20260903000030 | 87 | 0.0 | 3.0 | 0.00 | 0.00 | 0.00 | 79 | 1011.6 | |
| 20260902234528 | 88 | 0.0 | 3.0 | 0.00 | 0.00 | 0.00 | 77 | 1011.5 | |
| 20260902233027 | 90 | 0.0 | 2.0 | 0.00 | 0.00 | 0.00 | 76 | 1011.5 | |
| 20260902231527 | 90 | 0.0 | 5.0 | 0.00 | 0.00 | 0.00 | 74 | 1011.6 | |
| 20260902230026 | 91 | 0.0 | 5.0 | 0.00 | 0.00 | 0.00 | 69 | 1011.6 | |
| 20260902224526 | 92 | 0.0 | 7.0 | 0.00 | 0.00 | 0.00 | 68 | 1011.5 | |
| 20260902223031 | 93 | 0.0 | 7.0 | 0.00 | 0.00 | 0.00 | 68 | 1011.7 | |
| 20260902221525 | 93 | 0.0 | 7.0 | 0.00 | 0.00 | 0.00 | 67 | 1011.7 | |
| 20260902220024 | 93 | 0.0 | 7.0 | 0.00 | 0.00 | 0.00 | 65 | 1011.7 | |
| 20260902214528 | 94 | 0.0 | 10.0 | 0.00 | 0.00 | 0.00 | 62 | 1011.7 | |
| 20260902213028 | 94 | 0.0 | 7.0 | 0.00 | 0.00 | 0.00 | 67 | 1011.8 | |
| 20260902211522 | 94 | 0.0 | 8.0 | 0.00 | 0.00 | 0.00 | 63 | 1011.8 | |
| 20260902210027 | 95 | 0.0 | 7.0 | 0.00 | 0.00 | 0.00 | 65 | 1011.9 | |
| 20260902204521 | 95 | 0.0 | 8.0 | 0.00 | 0.00 | 0.00 | 62 | 1011.9 | |
| 20260902203031 | 95 | 0.0 | 6.0 | 0.00 | 0.00 | 0.00 | 68 | 1011.9 | |
| 20260902201519 | 95 | 0.0 | 9.0 | 0.00 | 0.00 | 0.00 | 64 | 1012.1 | |
| 20260902200015 | 95 | 0.0 | 9.0 | 0.00 | 0.00 | 0.00 | 64 | 1012.3 | |
| 20260902194512 | 94 | 0.0 | 8.0 | 0.00 | 0.00 | 0.00 | 65 | 1012.4 | |
| 20260902193009 | 94 | 0.0 | 10.0 | 0.00 | 0.00 | 0.00 | 65 | 1012.6 | |
| 20260902191511 | 94 | 0.0 | 12.0 | 0.00 | 0.00 | 0.00 | 63 | 1012.7 | |
| 20260902190007 | 93 | 0.0 | 10.0 | 0.00 | 0.00 | 0.00 | 64 | 1012.8 | |
| 20260902184513 | 93 | 0.0 | 11.0 | 0.00 | 0.00 | 0.00 | 64 | 1013.0 | |
| 20260902183005 | 93 | 0.0 | 9.0 | 0.00 | 0.00 | 0.00 | 63 | 1012.9 | |
| 20260902181503 | 93 | 0.0 | 9.0 | 0.00 | 0.00 | 0.00 | 64 | 1013.0 | |
| 20260902180100 | 93 | 0.0 | 6.0 | 0.00 | 0.00 | 0.00 | 67 | 1013.0 | |
| 20260902174605 | 92 | 0.0 | 11.0 | 0.00 | 0.00 | 0.00 | 68 | 1013.3 | |
| 20260902173057 | 92 | 0.0 | 8.0 | 0.00 | 0.00 | 0.00 | 66 | 1013.4 | |
| 20260902171602 | 92 | 0.0 | 9.0 | 0.00 | 0.00 | 0.00 | 66 | 1013.3 | |
| 20260902170053 | 91 | 0.0 | 7.0 | 0.00 | 0.00 | 0.00 | 68 | 1013.3 | |
| 20260902164552 | 91 | 0.0 | 8.0 | 0.00 | 0.00 | 0.00 | 69 | 1013.4 | |
| 20260902163102 | 90 | 0.0 | 6.0 | 0.00 | 0.00 | 0.00 | 73 | 1013.4 | |
| 20260902161548 | 89 | 0.0 | 5.0 | 0.00 | 0.00 | 0.00 | 72 | 1013.6 | |
| 20260902160043 | 88 | 0.0 | 5.0 | 0.00 | 0.00 | 0.00 | 74 | 1013.6 | |
| 20260902154542 | 88 | 0.0 | 7.0 | 0.00 | 0.00 | 0.00 | 73 | 1013.5 | |
| 20260902153040 | 87 | 0.0 | 7.0 | 0.00 | 0.00 | 0.00 | 73 | 1013.6 | |
| 20260902151542 | 86 | 0.0 | 8.0 | 0.00 | 0.00 | 0.00 | 76 | 1013.5 | |
| 20260902150032 | 85 | 0.0 | 7.0 | 0.00 | 0.00 | 0.00 | 79 | 1013.6 | |
| 20260902144537 | 84 | 0.0 | 5.0 | 0.00 | 0.00 | 0.00 | 81 | 1013.6 | |
| 20260902143128 | 82 | 0.0 | 5.0 | 0.00 | 0.00 | 0.00 | 84 | 1013.6 | |
| 20260902141524 | 81 | 0.0 | 7.0 | 0.00 | 0.00 | 0.00 | 86 | 1013.7 | |
| 20260902140016 | 80 | 0.0 | 3.0 | 0.00 | 0.00 | 0.00 | 88 | 1013.9 | |
| 20260902133002 | 77 | 0.0 | 7.0 | 0.00 | 0.00 | 0.00 | 93 | 1014.2 | |
| 20260902131604 | 76 | 0.0 | 5.0 | 0.00 | 0.00 | 0.00 | 95 | 1014.1 | |
| 20260902130056 | 74 | 0.0 | 6.0 | 0.00 | 0.00 | 0.00 | 96 | 1014.1 | |
| 20260902124557 | 73 | 0.0 | 3.0 | 0.00 | 0.00 | 0.00 | 96 | 1014.1 | |
| 20260902123115 | 72 | 0.0 | 4.0 | 0.00 | 0.00 | 0.00 | 96 | 1014.1 | |
| 20260902121559 | 72 | 0.0 | 2.0 | 0.00 | 0.00 | 0.00 | 96 | 1014.3 | |
| 20260902120106 | 71 | 0.0 | 1.0 | 0.00 | 0.00 | 0.00 | 95 | 1014.3 | |
| 20260902114552 | 71 | 0.0 | 2.0 | 0.00 | 0.00 | 0.00 | 95 | 1014.0 | |
| 20260902113052 | 71 | 0.0 | 0.0 | 0.00 | 0.00 | 0.00 | 95 | 1013.9 | |
| 20260902111556 | 71 | 0.0 | 0.0 | 0.00 | 0.00 | 0.00 | 95 | 1014.0 | |
| 20260902110046 | 72 | 0.0 | 0.0 | 0.00 | 0.00 | 0.00 | 94 | 1014.0 | |
| 20260902104547 | 72 | 0.0 | 0.0 | 0.00 | 0.00 | 0.00 | 94 | 1014.0 | |
| 20260902103044 | 72 | 0.0 | 1.0 | 0.00 | 0.00 | 0.00 | 94 | 1013.9 | |
| 20260902101549 | 72 | 0.0 | 1.0 | 0.00 | 0.00 | 0.00 | 94 | 1013.7 | |
| 20260902100050 | 73 | 0.0 | 1.0 | 0.00 | 0.00 | 0.00 | 93 | 1013.6 | |
| 20260902094540 | 73 | 0.0 | 2.0 | 0.00 | 0.00 | 0.00 | 93 | 1013.6 | |
| 20260902093039 | 73 | 0.0 | 2.0 | 0.00 | 0.00 | 0.00 | 93 | 1013.6 | |
| 20260902091536 | 74 | 0.0 | 0.0 | 0.00 | 0.00 | 0.00 | 93 | 1013.5 | |
| 20260902090036 | 74 | 0.0 | 2.0 | 0.00 | 0.00 | 0.00 | 93 | 1013.4 | |
| 20260902084536 | 74 | 0.0 | 3.0 | 0.00 | 0.00 | 0.00 | 93 | 1013.2 | |
| 20260902083034 | 74 | 0.0 | 3.0 | 0.00 | 0.00 | 0.00 | 94 | 1013.3 | |
| 20260902081537 | 74 | 0.0 | 7.0 | 0.00 | 0.00 | 0.00 | 95 | 1013.2 | |
| 20260902080034 | 74 | 0.0 | 8.0 | 0.00 | 0.00 | 0.00 | 96 | 1013.2 | |
| 20260902074538 | 74 | 0.0 | 7.0 | 0.00 | 0.00 | 0.00 | 96 | 1013.2 | |
| 20260902073032 | 73 | 0.0 | 6.0 | 0.00 | 0.00 | 0.00 | 96 | 1013.2 | |
| 20260902071531 | 73 | 0.0 | 2.0 | 0.00 | 0.00 | 0.00 | 96 | 1013.3 | |
| 20260902070031 | 73 | 0.0 | 2.0 | 0.00 | 0.00 | 0.00 | 95 | 1013.2 | |
| 20260902064530 | 73 | 0.0 | 3.0 | 0.00 | 0.00 | 0.00 | 95 | 1013.2 | |
| 20260902063039 | 73 | 0.0 | 3.0 | 0.00 | 0.00 | 0.00 | 95 | 1013.1 | |
| 20260902061529 | 73 | 0.0 | 2.0 | 0.00 | 0.00 | 0.00 | 95 | 1013.1 | |
| 20260902060026 | 73 | 0.0 | 0.0 | 0.00 | 0.00 | 0.00 | 94 | 1013.2 | |
| 20260902054529 | 74 | 0.0 | 1.0 | 0.00 | 0.00 | 0.00 | 94 | 1013.2 | |
| 20260902053024 | 74 | 0.0 | 0.0 | 0.00 | 0.00 | 0.00 | 94 | 1013.2 | |
| 20260902051522 | 74 | 0.0 | 0.0 | 0.00 | 0.00 | 0.00 | 94 | 1013.3 | |
| 20260902050049 | 75 | 0.0 | 0.0 | 0.00 | 0.00 | 0.00 | 93 | 1013.3 | |
| 20260902044519 | 75 | 0.0 | 1.0 | 0.00 | 0.00 | 0.00 | 93 | 1013.5 | |
| 20260902043029 | 75 | 0.0 | 0.0 | 0.00 | 0.00 | 0.00 | 93 | 1013.4 | |
| 20260902041518 | 76 | 0.0 | 1.0 | 0.00 | 0.00 | 0.00 | 93 | 1013.5 | |
| 20260902040021 | 76 | 0.0 | 1.0 | 0.00 | 0.00 | 0.00 | 93 | 1013.4 |